sat.trackr.live / text

‹ back to catalog

STARLINK-11135 [DTC]

NORAD 60048 · 2024-112L

PAYLOAD ACTIVE UNKNOWN

§ Identity

Operator
Country
US
Launch date
2024-06-08
Launch site
AFWTR
Launch vehicle
Mass (kg)
RCS (m²)

Purposes: comms

External: N2YO · Heavens-Above · Gunter

§ Orbital elements

Epoch: 2026-09-21T15:36:28.346976Z

Period
91.74 min
Inclination
53.1595°
Eccentricity
0.0000916
Mean motion
15.69706017 rev/d
Perigee alt
359.1 km
Apogee alt
360.4 km
Semi-major
6,737.9 km
B*
2.4258e-6
RAAN
19.9184°
Arg perigee
60.5541°
Mean anomaly
299.5569°
Rev number
13,176

§ Raw data

STARLINK-11135 [DTC]1 60048U 24112L   26264.65032809 -.00000294  00000+0  24258-5 0  99922 60048  53.1595  19.9184 0000916  60.5541 299.5569 15.69706017131762

JSON: /api/v1/satellites/60048 · /tle

For live sub-satellite position, see the globe view (requires WebGL).

§ Visibility from observer

Set your observer location to see the next 7 days of passes ≥ 10°. The values pass through the URL so the page stays shareable.

No JS? Fill the form by hand. The geolocation button needs JavaScript.